Simultaneous Nadir Overpasses (SNOs) Predictions

Prediction of SNOs between METOP-B and TERRA Satellite Orbit:

Table of predicted SNOs for the next 14.0 days since TLE Epoch: 4/3/2016
Index Date (METOP-B) Time (METOP-B) Lat,Lon (METOP-B) SZA (METOP-B ) Date (TERRA) Time (TERRA) Lat,Lon (TERRA) SZA (TERRA ) Distance(km) Time Diff (sec)
1 04/05/2016 15:01:23 -81.32,-177.70 102.30 04/05/2016 15:01:25 -81.31,-177.82 102.32 2.23 2
2 04/05/2016 15:52:02 81.33, -9.79 77.77 04/05/2016 15:50:50 81.33, -9.74 77.74 1.18 72
3 04/08/2016 09:45:06 81.31, 80.95 76.64 04/08/2016 09:46:13 81.32, 81.11 76.69 2.82 67
4 04/08/2016 10:35:46 -81.32,-111.24 103.32 04/08/2016 10:35:40 -81.32,-111.24 103.32 0.32 6
5 04/11/2016 05:19:28 81.32, 147.74 75.68 04/11/2016 05:20:28 81.32, 147.60 75.69 2.29 60
6 04/11/2016 06:10:09 -81.32, -44.81 104.33 04/11/2016 06:09:55 -81.32, -44.72 104.32 1.46 14
7 04/14/2016 00:53:50 81.32,-145.88 74.68 04/14/2016 00:54:42 81.32,-145.96 74.69 1.31 52
8 04/14/2016 01:44:31 -81.32, 21.60 105.32 04/14/2016 01:44:09 -81.32, 21.75 105.31 2.39 22
9 04/16/2016 20:28:13 81.32, -79.52 73.70 04/16/2016 20:28:57 81.32, -79.57 73.71 0.87 44




NCC Satellite Simultaneous Nadir Overpasses (SNOs) Prediction Service
